Time,TemperatureF,DewpointF,PressureIn,WindDirection,WindDirectionDegrees,WindSpeedMPH,WindSpeedGustMPH,Humidity,HourlyPrecipIn,Conditions,Clouds,dailyrainin,SoftwareType,DateUTC
2013-06-08 00:02:00,59.3,50.8,29.89,ESE,106,1.0,5.0,73,0.00,,,0.00,WUHU216DAVISVP2,2013-06-08 05:02:00,
2013-06-08 00:07:00,59.3,50.4,29.89,ESE,105,1.0,5.0,72,0.00,,,0.00,WUHU216DAVISVP2,2013-06-08 05:07:00,
2013-06-08 00:12:00,59.3,50.4,29.89,ESE,118,2.0,6.0,72,0.00,,,0.00,WUHU216DAVISVP2,2013-06-08 05:12:00,
2013-06-08 00:17:00,59.2,50.3,29.89,ESE,113,1.0,6.0,72,0.00,,,0.00,WUHU216DAVISVP2,2013-06-08 05:17:00,
2013-06-08 00:22:00,59.2,50.3,29.89,ESE,111,2.0,6.0,72,0.00,,,0.00,WUHU216DAVISVP2,2013-06-08 05:22:00,
2013-06-08 00:27:00,59.1,50.2,29.89,East,91,3.0,6.0,72,0.00,,,0.00,WUHU216DAVISVP2,2013-06-08 05:27:00,
2013-06-08 00:32:00,59.0,50.1,29.89,East,98,1.0,7.0,72,0.00,,,0.00,WUHU216DAVISVP2,2013-06-08 05:32:00,
2013-06-08 00:37:00,58.9,50.0,29.89,East,101,1.0,7.0,72,0.00,,,0.00,WUHU216DAVISVP2,2013-06-08 05:37:00,
2013-06-08 00:42:00,58.8,50.3,29.89,ESE,118,1.0,7.0,73,0.00,,,0.00,WUHU216DAVISVP2,2013-06-08 05:42:00,
2013-06-08 00:47:00,58.7,50.2,29.89,East,101,0.0,4.0,73,0.00,,,0.00,WUHU216DAVISVP2,2013-06-08 05:47:00,
2013-06-08 00:52:00,58.5,50.0,29.89,SE,128,0.0,4.0,73,0.00,,,0.00,WUHU216DAVISVP2,2013-06-08 05:52:00,
2013-06-08 00:57:00,58.3,50.2,29.89,SE,139,3.0,4.0,74,0.00,,,0.00,WUHU216DAVISVP2,2013-06-08 05:57:00,
2013-06-08 01:02:00,58.2,50.1,29.88,ESE,122,0.0,4.0,74,0.00,,,0.00,WUHU216DAVISVP2,2013-06-08 06:02:00,
2013-06-08 01:07:00,58.1,49.9,29.88,ESE,115,1.0,6.0,74,0.00,,,0.00,WUHU216DAVISVP2,2013-06-08 06:07:00,
2013-06-08 01:12:00,58.1,49.9,29.88,ESE,113,0.0,6.0,74,0.00,,,0.00,WUHU216DAVISVP2,2013-06-08 06:12:00,
2013-06-08 01:17:00,58.0,49.8,29.88,ESE,103,1.0,6.0,74,0.00,,,0.00,WUHU216DAVISVP2,2013-06-08 06:17:00,
2013-06-08 01:22:00,57.9,49.7,29.88,ESE,103,0.0,6.0,74,0.00,,,0.00,WUHU216DAVISVP2,2013-06-08 06:22:00,
2013-06-08 01:27:00,57.9,49.7,29.88,East,99,1.0,4.0,74,0.00,,,0.00,WUHU216DAVISVP2,2013-06-08 06:27:00,
2013-06-08 01:32:00,57.8,49.6,29.87,SE,134,0.0,4.0,74,0.00,,,0.00,WUHU216DAVISVP2,2013-06-08 06:32:00,
2013-06-08 01:37:00,57.8,49.6,29.87,SE,135,2.0,8.0,74,0.00,,,0.00,WUHU216DAVISVP2,2013-06-08 06:37:00,
2013-06-08 01:42:00,57.8,49.7,29.87,ESE,107,3.0,8.0,74,0.00,,,0.00,WUHU216DAVISVP2,2013-06-08 06:42:00,
2013-06-08 01:47:00,57.7,49.5,29.87,ESE,112,1.0,8.0,74,0.00,,,0.00,WUHU216DAVISVP2,2013-06-08 06:47:00,
2013-06-08 01:52:00,57.6,49.8,29.87,SSE,162,0.0,8.0,75,0.00,,,0.00,WUHU216DAVISVP2,2013-06-08 06:52:00,
2013-06-08 01:57:00,57.4,49.6,29.88,SE,129,1.0,3.0,75,0.00,,,0.00,WUHU216DAVISVP2,2013-06-08 06:57:00,
2013-06-08 02:02:00,57.3,49.5,29.87,East,100,1.0,3.0,75,0.00,,,0.00,WUHU216DAVISVP2,2013-06-08 07:02:00,
2013-06-08 02:07:00,57.2,49.4,29.87,ESE,110,2.0,4.0,75,0.00,,,0.00,WUHU216DAVISVP2,2013-06-08 07:07:00,
2013-06-08 02:12:00,57.2,49.4,29.87,East,85,3.0,4.0,75,0.00,,,0.00,WUHU216DAVISVP2,2013-06-08 07:12:00,
2013-06-08 02:17:00,57.1,49.3,29.86,ENE,77,2.0,4.0,75,0.00,,,0.00,WUHU216DAVISVP2,2013-06-08 07:17:00,
2013-06-08 02:22:00,57.0,49.2,29.86,ESE,111,2.0,6.0,75,0.00,,,0.00,WUHU216DAVISVP2,2013-06-08 07:22:00,
2013-06-08 02:27:00,56.9,49.5,29.86,ESE,109,2.0,6.0,76,0.00,,,0.00,WUHU216DAVISVP2,2013-06-08 07:27:00,
2013-06-08 02:32:00,56.8,49.4,29.87,SE,141,2.0,6.0,76,0.00,,,0.00,WUHU216DAVISVP2,2013-06-08 07:32:00,
2013-06-08 02:37:00,56.9,49.5,29.87,East,88,1.0,6.0,76,0.00,,,0.00,WUHU216DAVISVP2,2013-06-08 07:37:00,
2013-06-08 02:42:00,57.0,49.2,29.87,SE,131,3.0,4.0,75,0.00,,,0.00,WUHU216DAVISVP2,2013-06-08 07:42:00,
2013-06-08 02:47:00,57.1,49.3,29.87,East,101,0.0,4.0,75,0.00,,,0.00,WUHU216DAVISVP2,2013-06-08 07:47:00,
2013-06-08 02:52:00,57.2,49.4,29.87,ESE,103,2.0,6.0,75,0.00,,,0.00,WUHU216DAVISVP2,2013-06-08 07:52:00,
2013-06-08 02:57:00,57.2,49.4,29.87,ESE,116,1.0,6.0,75,0.00,,,0.00,WUHU216DAVISVP2,2013-06-08 07:57:00,
2013-06-08 03:02:00,57.3,49.5,29.87,East,101,2.0,6.0,75,0.00,,,0.00,WUHU216DAVISVP2,2013-06-08 08:02:00,
2013-06-08 03:07:00,57.3,49.2,29.86,ENE,77,2.0,6.0,74,0.00,,,0.00,WUHU216DAVISVP2,2013-06-08 08:07:00,
2013-06-08 03:12:00,57.3,49.2,29.86,ESE,117,4.0,6.0,74,0.00,,,0.00,WUHU216DAVISVP2,2013-06-08 08:12:00,
2013-06-08 03:17:00,57.2,49.4,29.86,ESE,103,2.0,6.0,75,0.00,,,0.00,WUHU216DAVISVP2,2013-06-08 08:17:00,
2013-06-08 03:22:00,57.2,49.4,29.86,ESE,108,2.0,6.0,75,0.00,,,0.00,WUHU216DAVISVP2,2013-06-08 08:22:00,
2013-06-08 03:27:00,57.1,49.3,29.86,ESE,117,2.0,6.0,75,0.00,,,0.00,WUHU216DAVISVP2,2013-06-08 08:27:00,
2013-06-08 03:32:00,57.1,49.2,29.86,ESE,117,1.0,6.0,75,0.00,,,0.00,WUHU216DAVISVP2,2013-06-08 08:32:00,
2013-06-08 03:37:00,57.0,49.2,29.86,ESE,117,2.0,6.0,75,0.00,,,0.00,WUHU216DAVISVP2,2013-06-08 08:37:00,
2013-06-08 03:42:00,56.9,49.1,29.86,SSE,148,2.0,5.0,75,0.00,,,0.00,WUHU216DAVISVP2,2013-06-08 08:42:00,
2013-06-08 03:47:00,56.9,49.2,29.86,ESE,119,2.0,5.0,75,0.00,,,0.00,WUHU216DAVISVP2,2013-06-08 08:47:00,
2013-06-08 03:52:00,56.9,49.2,29.85,ESE,122,1.0,5.0,75,0.00,,,0.00,WUHU216DAVISVP2,2013-06-08 08:52:00,
2013-06-08 03:57:00,56.9,49.2,29.85,ESE,103,2.0,5.0,75,0.00,,,0.00,WUHU216DAVISVP2,2013-06-08 08:57:00,
2013-06-08 04:02:00,56.9,49.2,29.84,East,91,2.0,5.0,75,0.00,,,0.00,WUHU216DAVISVP2,2013-06-08 09:02:00,
2013-06-08 04:07:00,56.9,49.5,29.84,East,91,2.0,5.0,76,0.00,,,0.00,WUHU216DAVISVP2,2013-06-08 09:07:00,
2013-06-08 04:12:00,56.8,49.4,29.84,ESE,122,3.0,6.0,76,0.00,,,0.00,WUHU216DAVISVP2,2013-06-08 09:12:00,
2013-06-08 04:17:00,56.8,49.4,29.84,East,87,4.0,6.0,76,0.00,,,0.00,WUHU216DAVISVP2,2013-06-08 09:17:00,
2013-06-08 04:22:00,56.8,49.4,29.84,SSE,160,2.0,6.0,76,0.00,,,0.00,WUHU216DAVISVP2,2013-06-08 09:22:00,
2013-06-08 04:27:00,57.0,49.2,29.83,SE,130,2.0,6.0,75,0.00,,,0.00,WUHU216DAVISVP2,2013-06-08 09:27:00,
2013-06-08 04:32:00,57.1,49.3,29.83,ESE,122,3.0,9.0,75,0.00,,,0.00,WUHU216DAVISVP2,2013-06-08 09:32:00,
2013-06-08 04:37:00,57.2,49.4,29.83,ESE,115,2.0,9.0,75,0.00,,,0.00,WUHU216DAVISVP2,2013-06-08 09:37:00,
2013-06-08 04:42:00,57.4,49.3,29.83,ESE,117,3.0,10.0,74,0.00,,,0.00,WUHU216DAVISVP2,2013-06-08 09:42:00,
2013-06-08 04:47:00,57.6,49.1,29.82,ESE,108,2.0,10.0,73,0.00,,,0.00,WUHU216DAVISVP2,2013-06-08 09:47:00,
2013-06-08 04:52:00,57.7,49.2,29.83,ESE,116,2.0,10.0,73,0.00,,,0.00,WUHU216DAVISVP2,2013-06-08 09:52:00,
2013-06-08 04:57:00,57.8,49.3,29.83,ESE,107,5.0,10.0,73,0.00,,,0.00,WUHU216DAVISVP2,2013-06-08 09:57:00,
2013-06-08 05:02:00,57.9,49.4,29.82,SE,124,2.0,7.0,73,0.00,,,0.00,WUHU216DAVISVP2,2013-06-08 10:02:00,
2013-06-08 05:07:00,57.9,49.4,29.82,ESE,114,2.0,9.0,73,0.00,,,0.00,WUHU216DAVISVP2,2013-06-08 10:07:00,
2013-06-08 05:12:00,57.9,49.3,29.82,ESE,104,2.0,9.0,73,0.00,,,0.00,WUHU216DAVISVP2,2013-06-08 10:12:00,
2013-06-08 05:17:00,57.8,49.6,29.81,SE,141,2.0,9.0,74,0.00,,,0.00,WUHU216DAVISVP2,2013-06-08 10:17:00,
2013-06-08 05:22:00,57.6,49.4,29.82,ESE,105,1.0,5.0,74,0.00,,,0.00,WUHU216DAVISVP2,2013-06-08 10:22:00,
2013-06-08 05:27:00,57.4,49.5,29.82,ESE,123,3.0,5.0,75,0.00,,,0.00,WUHU216DAVISVP2,2013-06-08 10:27:00,
2013-06-08 05:32:00,57.3,49.5,29.81,East,93,2.0,5.0,75,0.00,,,0.00,WUHU216DAVISVP2,2013-06-08 10:32:00,
2013-06-08 05:37:00,57.2,49.4,29.81,East,101,1.0,6.0,75,0.00,,,0.00,WUHU216DAVISVP2,2013-06-08 10:37:00,
2013-06-08 05:42:00,57.1,49.3,29.81,SE,131,2.0,6.0,75,0.00,,,0.00,WUHU216DAVISVP2,2013-06-08 10:42:00,
2013-06-08 05:47:00,57.0,49.2,29.82,East,99,3.0,8.0,75,0.00,,,0.00,WUHU216DAVISVP2,2013-06-08 10:47:00,
2013-06-08 05:52:00,56.9,49.2,29.82,ESE,103,1.0,8.0,75,0.00,,,0.00,WUHU216DAVISVP2,2013-06-08 10:52:00,
2013-06-08 05:57:00,56.8,49.1,29.82,SE,124,2.0,8.0,75,0.00,,,0.00,WUHU216DAVISVP2,2013-06-08 10:57:00,
2013-06-08 06:02:00,56.8,49.4,29.82,East,89,3.0,8.0,76,0.00,,,0.00,WUHU216DAVISVP2,2013-06-08 11:02:00,
2013-06-08 06:07:00,56.8,49.7,29.83,SE,134,1.0,7.0,77,0.00,,,0.00,WUHU216DAVISVP2,2013-06-08 11:07:00,
2013-06-08 06:12:00,56.7,50.0,29.83,SE,126,1.0,7.0,78,0.00,,,0.00,WUHU216DAVISVP2,2013-06-08 11:12:00,
2013-06-08 06:17:00,56.6,49.9,29.83,SE,127,1.0,5.0,78,0.00,,,0.00,WUHU216DAVISVP2,2013-06-08 11:17:00,
2013-06-08 06:22:00,56.5,50.1,29.83,ESE,110,1.0,3.0,79,0.00,,,0.00,WUHU216DAVISVP2,2013-06-08 11:22:00,
2013-06-08 06:27:00,56.4,50.4,29.83,SE,134,1.0,3.0,80,0.00,,,0.00,WUHU216DAVISVP2,2013-06-08 11:27:00,
2013-06-08 06:32:00,56.3,50.3,29.84,ESE,120,1.0,4.0,80,0.00,,,0.00,WUHU216DAVISVP2,2013-06-08 11:32:00,
2013-06-08 06:37:00,56.2,50.8,29.85,SSE,152,0.0,4.0,82,0.01,,,0.01,WUHU216DAVISVP2,2013-06-08 11:37:00,
2013-06-08 06:42:00,55.8,51.0,29.86,SSE,157,0.0,4.0,84,0.02,,,0.02,WUHU216DAVISVP2,2013-06-08 11:42:00,
2013-06-08 06:47:00,55.4,51.0,29.86,SSE,157,0.0,4.0,85,0.04,,,0.04,WUHU216DAVISVP2,2013-06-08 11:47:00,
2013-06-08 06:52:00,55.1,51.3,29.87,SSE,157,0.0,2.0,87,0.06,,,0.06,WUHU216DAVISVP2,2013-06-08 11:52:00,
2013-06-08 06:57:00,54.8,51.3,29.87,SSE,156,0.0,1.0,88,0.07,,,0.07,WUHU216DAVISVP2,2013-06-08 11:57:00,
2013-06-08 07:02:00,54.6,51.4,29.87,ESE,120,0.0,1.0,89,0.09,,,0.09,WUHU216DAVISVP2,2013-06-08 12:02:00,
2013-06-08 07:07:00,54.4,51.5,29.86,ESE,109,1.0,2.0,90,0.10,,,0.10,WUHU216DAVISVP2,2013-06-08 12:07:00,
2013-06-08 07:12:00,54.3,51.7,29.86,ESE,123,1.0,2.0,91,0.12,,,0.12,WUHU216DAVISVP2,2013-06-08 12:12:00,
2013-06-08 07:17:00,54.2,51.6,29.86,SSE,158,0.0,2.0,91,0.13,,,0.13,WUHU216DAVISVP2,2013-06-08 12:17:00,
2013-06-08 07:22:00,54.2,51.6,29.86,ESE,120,0.0,2.0,91,0.16,,,0.16,WUHU216DAVISVP2,2013-06-08 12:22:00,
2013-06-08 07:27:00,54.1,51.8,29.85,ESE,120,1.0,2.0,92,0.18,,,0.18,WUHU216DAVISVP2,2013-06-08 12:27:00,
2013-06-08 07:32:00,54.0,51.7,29.85,SE,140,1.0,4.0,92,0.21,,,0.21,WUHU216DAVISVP2,2013-06-08 12:32:00,
2013-06-08 07:37:00,53.9,51.6,29.85,SSE,158,0.0,5.0,92,0.23,,,0.24,WUHU216DAVISVP2,2013-06-08 12:37:00,
2013-06-08 07:42:00,53.7,51.4,29.85,ESE,103,1.0,5.0,92,0.24,,,0.26,WUHU216DAVISVP2,2013-06-08 12:42:00,
2013-06-08 07:47:00,53.7,51.7,29.85,East,101,2.0,5.0,93,0.24,,,0.28,WUHU216DAVISVP2,2013-06-08 12:47:00,
2013-06-08 07:52:00,53.7,51.7,29.85,SE,134,1.0,5.0,93,0.25,,,0.31,WUHU216DAVISVP2,2013-06-08 12:52:00,
2013-06-08 07:57:00,53.6,51.6,29.85,ESE,105,4.0,7.0,93,0.26,,,0.33,WUHU216DAVISVP2,2013-06-08 12:57:00,
2013-06-08 08:02:00,53.6,51.6,29.85,ESE,122,4.0,7.0,93,0.27,,,0.36,WUHU216DAVISVP2,2013-06-08 13:02:00,
2013-06-08 08:07:00,53.5,51.5,29.85,ESE,113,2.0,7.0,93,0.29,,,0.39,WUHU216DAVISVP2,2013-06-08 13:07:00,
2013-06-08 08:12:00,53.6,51.6,29.84,East,100,2.0,5.0,93,0.29,,,0.41,WUHU216DAVISVP2,2013-06-08 13:12:00,
2013-06-08 08:17:00,53.5,51.5,29.84,ESE,122,2.0,6.0,93,0.31,,,0.44,WUHU216DAVISVP2,2013-06-08 13:17:00,
2013-06-08 08:22:00,53.5,51.5,29.84,SE,127,2.0,6.0,93,0.30,,,0.46,WUHU216DAVISVP2,2013-06-08 13:22:00,
2013-06-08 08:27:00,53.4,51.4,29.84,ESE,123,2.0,6.0,93,0.31,,,0.49,WUHU216DAVISVP2,2013-06-08 13:27:00,
2013-06-08 08:32:00,53.4,51.7,29.83,ENE,66,5.0,9.0,94,0.31,,,0.52,WUHU216DAVISVP2,2013-06-08 13:32:00,
2013-06-08 08:37:00,53.4,51.7,29.82,ESE,115,3.0,9.0,94,0.30,,,0.54,WUHU216DAVISVP2,2013-06-08 13:37:00,
2013-06-08 08:42:00,53.3,51.6,29.81,ESE,111,5.0,13.0,94,0.30,,,0.56,WUHU216DAVISVP2,2013-06-08 13:42:00,
2013-06-08 08:47:00,53.3,51.6,29.82,ESE,119,3.0,13.0,94,0.30,,,0.58,WUHU216DAVISVP2,2013-06-08 13:47:00,
2013-06-08 08:52:00,53.4,51.7,29.83,SE,124,2.0,13.0,94,0.28,,,0.59,WUHU216DAVISVP2,2013-06-08 13:52:00,
2013-06-08 08:57:00,53.5,51.8,29.83,ESE,117,2.0,13.0,94,0.27,,,0.60,WUHU216DAVISVP2,2013-06-08 13:57:00,
2013-06-08 09:02:00,53.6,51.9,29.82,ENE,69,6.0,8.0,94,0.25,,,0.61,WUHU216DAVISVP2,2013-06-08 14:02:00,
2013-06-08 09:07:00,53.6,51.9,29.82,ESE,107,3.0,10.0,94,0.23,,,0.62,WUHU216DAVISVP2,2013-06-08 14:07:00,
2013-06-08 09:12:00,53.7,52.0,29.81,East,101,7.0,10.0,94,0.22,,,0.63,WUHU216DAVISVP2,2013-06-08 14:12:00,
2013-06-08 09:17:00,53.7,52.0,29.81,East,91,4.0,10.0,94,0.20,,,0.64,WUHU216DAVISVP2,2013-06-08 14:17:00,
2013-06-08 09:22:00,53.7,52.3,29.81,East,96,6.0,10.0,95,0.20,,,0.66,WUHU216DAVISVP2,2013-06-08 14:22:00,
2013-06-08 09:27:00,53.7,52.3,29.80,ESE,107,4.0,10.0,95,0.17,,,0.66,WUHU216DAVISVP2,2013-06-08 14:27:00,
2013-06-08 09:32:00,53.8,52.4,29.81,ESE,103,4.0,10.0,95,0.15,,,0.67,WUHU216DAVISVP2,2013-06-08 14:32:00,
2013-06-08 09:37:00,53.9,52.5,29.81,East,89,3.0,10.0,95,0.14,,,0.68,WUHU216DAVISVP2,2013-06-08 14:37:00,
2013-06-08 09:42:00,53.9,52.5,29.81,SE,133,1.0,10.0,95,0.13,,,0.69,WUHU216DAVISVP2,2013-06-08 14:42:00,
2013-06-08 09:47:00,54.0,52.6,29.81,ESE,105,1.0,9.0,95,0.11,,,0.69,WUHU216DAVISVP2,2013-06-08 14:47:00,
2013-06-08 09:52:00,54.1,52.7,29.81,SE,127,3.0,9.0,95,0.10,,,0.69,WUHU216DAVISVP2,2013-06-08 14:52:00,
2013-06-08 09:57:00,54.0,52.6,29.81,East,99,4.0,9.0,95,0.10,,,0.70,WUHU216DAVISVP2,2013-06-08 14:57:00,
2013-06-08 10:02:00,54.1,52.7,29.81,ENE,65,3.0,8.0,95,0.09,,,0.71,WUHU216DAVISVP2,2013-06-08 15:02:00,
2013-06-08 10:07:00,54.1,52.7,29.80,ESE,103,3.0,14.0,95,0.10,,,0.72,WUHU216DAVISVP2,2013-06-08 15:07:00,
2013-06-08 10:12:00,54.1,52.7,29.80,SW,220,2.0,14.0,95,0.09,,,0.72,WUHU216DAVISVP2,2013-06-08 15:12:00,
2013-06-08 10:17:00,54.1,52.7,29.80,ESE,104,4.0,14.0,95,0.10,,,0.74,WUHU216DAVISVP2,2013-06-08 15:17:00,
2013-06-08 10:22:00,54.1,52.7,29.80,East,97,3.0,14.0,95,0.08,,,0.74,WUHU216DAVISVP2,2013-06-08 15:22:00,
2013-06-08 10:27:00,54.2,52.8,29.80,ESE,117,3.0,8.0,95,0.13,,,0.79,WUHU216DAVISVP2,2013-06-08 15:27:00,
2013-06-08 10:32:00,54.2,52.8,29.81,ESE,107,2.0,8.0,95,0.12,,,0.79,WUHU216DAVISVP2,2013-06-08 15:32:00,
2013-06-08 10:37:00,54.2,52.8,29.80,SE,127,3.0,10.0,95,0.12,,,0.80,WUHU216DAVISVP2,2013-06-08 15:37:00,
2013-06-08 10:42:00,54.2,52.8,29.80,East,99,3.0,10.0,95,0.13,,,0.82,WUHU216DAVISVP2,2013-06-08 15:42:00,
2013-06-08 10:47:00,54.3,52.9,29.80,ESE,123,2.0,10.0,95,0.14,,,0.84,WUHU216DAVISVP2,2013-06-08 15:47:00,
2013-06-08 10:52:00,54.3,53.1,29.80,South,170,3.0,10.0,96,0.16,,,0.85,WUHU216DAVISVP2,2013-06-08 15:52:00,
2013-06-08 10:57:00,54.4,53.2,29.80,East,86,1.0,7.0,96,0.16,,,0.86,WUHU216DAVISVP2,2013-06-08 15:57:00,
2013-06-08 11:02:00,54.5,53.4,29.80,ENE,58,4.0,5.0,96,0.16,,,0.87,WUHU216DAVISVP2,2013-06-08 16:02:00,
2013-06-08 11:07:00,54.6,53.5,29.80,ESE,116,1.0,5.0,96,0.16,,,0.88,WUHU216DAVISVP2,2013-06-08 16:07:00,
2013-06-08 11:12:00,54.8,53.6,29.80,ESE,110,2.0,6.0,96,0.16,,,0.88,WUHU216DAVISVP2,2013-06-08 16:12:00,
2013-06-08 11:17:00,55.0,53.8,29.80,ENE,63,2.0,6.0,96,0.15,,,0.89,WUHU216DAVISVP2,2013-06-08 16:17:00,
2013-06-08 11:22:00,55.2,54.0,29.80,East,98,7.0,7.0,96,0.15,,,0.89,WUHU216DAVISVP2,2013-06-08 16:22:00,
2013-06-08 11:27:00,55.5,54.3,29.80,East,92,2.0,7.0,96,0.11,,,0.90,WUHU216DAVISVP2,2013-06-08 16:27:00,
2013-06-08 11:32:00,55.7,54.6,29.80,SE,129,2.0,7.0,96,0.11,,,0.90,WUHU216DAVISVP2,2013-06-08 16:32:00,
2013-06-08 11:37:00,56.0,54.9,29.79,ESE,109,3.0,7.0,96,0.10,,,0.90,WUHU216DAVISVP2,2013-06-08 16:37:00,
2013-06-08 11:42:00,56.2,55.1,29.79,ESE,111,2.0,7.0,96,0.08,,,0.90,WUHU216DAVISVP2,2013-06-08 16:42:00,
2013-06-08 11:47:00,56.3,55.1,29.79,ESE,116,9.0,9.0,96,0.07,,,0.91,WUHU216DAVISVP2,2013-06-08 16:47:00,
2013-06-08 11:52:00,56.4,54.9,29.79,ESE,103,3.0,11.0,95,0.06,,,0.91,WUHU216DAVISVP2,2013-06-08 16:52:00,
2013-06-08 11:57:00,56.5,55.0,29.79,SE,127,2.0,11.0,95,0.05,,,0.91,WUHU216DAVISVP2,2013-06-08 16:57:00,
2013-06-08 12:02:00,56.6,55.1,29.79,ESE,109,2.0,11.0,95,0.04,,,0.91,WUHU216DAVISVP2,2013-06-08 17:02:00,
2013-06-08 12:07:00,56.8,55.3,29.79,ESE,109,1.0,8.0,95,0.03,,,0.91,WUHU216DAVISVP2,2013-06-08 17:07:00,
2013-06-08 12:12:00,56.8,55.3,29.79,SE,127,1.0,10.0,95,0.03,,,0.91,WUHU216DAVISVP2,2013-06-08 17:12:00,
2013-06-08 12:17:00,56.9,55.4,29.79,East,98,3.0,10.0,95,0.02,,,0.91,WUHU216DAVISVP2,2013-06-08 17:17:00,
2013-06-08 12:22:00,57.0,55.5,29.79,East,89,4.0,10.0,95,0.04,,,0.93,WUHU216DAVISVP2,2013-06-08 17:22:00,
2013-06-08 12:27:00,57.0,55.5,29.79,East,89,6.0,10.0,95,0.04,,,0.94,WUHU216DAVISVP2,2013-06-08 17:27:00,
2013-06-08 12:32:00,57.0,55.5,29.79,SE,140,2.0,9.0,95,0.05,,,0.95,WUHU216DAVISVP2,2013-06-08 17:32:00,
2013-06-08 12:37:00,56.9,55.4,29.79,East,101,3.0,9.0,95,0.06,,,0.96,WUHU216DAVISVP2,2013-06-08 17:37:00,
2013-06-08 12:42:00,56.8,55.3,29.80,ESE,108,2.0,9.0,95,0.08,,,0.98,WUHU216DAVISVP2,2013-06-08 17:42:00,
2013-06-08 12:47:00,56.9,55.7,29.79,ESE,114,0.0,9.0,96,0.08,,,0.99,WUHU216DAVISVP2,2013-06-08 17:47:00,
2013-06-08 12:52:00,56.8,55.4,29.79,SSE,147,5.0,8.0,95,0.09,,,1.00,WUHU216DAVISVP2,2013-06-08 17:52:00,
2013-06-08 12:57:00,56.8,55.7,29.79,SE,138,1.0,8.0,96,0.09,,,1.00,WUHU216DAVISVP2,2013-06-08 17:57:00,
2013-06-08 13:02:00,56.9,55.8,29.79,SSE,156,1.0,8.0,96,0.10,,,1.01,WUHU216DAVISVP2,2013-06-08 18:02:00,
2013-06-08 13:07:00,57.0,55.9,29.79,SSE,158,2.0,8.0,96,0.10,,,1.01,WUHU216DAVISVP2,2013-06-08 18:07:00,
2013-06-08 13:12:00,57.0,55.8,29.79,ESE,110,3.0,8.0,96,0.11,,,1.02,WUHU216DAVISVP2,2013-06-08 18:12:00,
2013-06-08 13:17:00,57.0,55.8,29.79,ESE,103,2.0,8.0,96,0.12,,,1.03,WUHU216DAVISVP2,2013-06-08 18:17:00,
2013-06-08 13:22:00,57.0,55.8,29.79,ESE,120,4.0,10.0,96,0.10,,,1.03,WUHU216DAVISVP2,2013-06-08 18:22:00,
2013-06-08 13:27:00,57.1,55.9,29.79,ESE,103,4.0,10.0,96,0.09,,,1.03,WUHU216DAVISVP2,2013-06-08 18:27:00,
2013-06-08 13:32:00,57.1,55.9,29.79,East,94,3.0,10.0,96,0.08,,,1.03,WUHU216DAVISVP2,2013-06-08 18:32:00,
2013-06-08 13:37:00,57.1,55.9,29.79,ESE,117,3.0,10.0,96,0.07,,,1.03,WUHU216DAVISVP2,2013-06-08 18:37:00,
2013-06-08 13:42:00,57.2,56.0,29.79,ESE,102,3.0,10.0,96,0.06,,,1.04,WUHU216DAVISVP2,2013-06-08 18:42:00,
2013-06-08 13:47:00,57.2,56.0,29.79,ENE,75,3.0,10.0,96,0.05,,,1.04,WUHU216DAVISVP2,2013-06-08 18:47:00,
2013-06-08 13:52:00,57.3,56.2,29.79,East,100,3.0,10.0,96,0.04,,,1.04,WUHU216DAVISVP2,2013-06-08 18:52:00,
2013-06-08 13:57:00,57.4,56.3,29.79,ESE,123,1.0,10.0,96,0.04,,,1.04,WUHU216DAVISVP2,2013-06-08 18:57:00,
2013-06-08 14:02:00,57.4,56.3,29.78,SE,128,1.0,7.0,96,0.03,,,1.04,WUHU216DAVISVP2,2013-06-08 19:02:00,
2013-06-08 14:07:00,57.5,56.3,29.78,ESE,102,2.0,8.0,96,0.03,,,1.04,WUHU216DAVISVP2,2013-06-08 19:07:00,
2013-06-08 14:12:00,57.6,56.4,29.78,ESE,110,2.0,8.0,96,0.03,,,1.05,WUHU216DAVISVP2,2013-06-08 19:12:00,
2013-06-08 14:17:00,57.7,56.2,29.78,SE,124,2.0,8.0,95,0.02,,,1.05,WUHU216DAVISVP2,2013-06-08 19:17:00,
2013-06-08 14:22:00,57.7,56.2,29.78,ESE,106,2.0,8.0,95,0.02,,,1.05,WUHU216DAVISVP2,2013-06-08 19:22:00,
2013-06-08 14:27:00,57.8,56.3,29.78,ESE,103,3.0,7.0,95,0.02,,,1.05,WUHU216DAVISVP2,2013-06-08 19:27:00,
2013-06-08 14:32:00,57.8,56.3,29.78,East,92,3.0,8.0,95,0.02,,,1.05,WUHU216DAVISVP2,2013-06-08 19:32:00,
2013-06-08 14:37:00,57.8,56.3,29.78,ESE,123,3.0,8.0,95,0.02,,,1.05,WUHU216DAVISVP2,2013-06-08 19:37:00,
2013-06-08 14:42:00,57.9,56.4,29.78,ESE,107,3.0,8.0,95,0.01,,,1.05,WUHU216DAVISVP2,2013-06-08 19:42:00,
2013-06-08 14:47:00,58.0,56.6,29.78,East,89,1.0,8.0,95,0.01,,,1.05,WUHU216DAVISVP2,2013-06-08 19:47:00,
2013-06-08 14:52:00,58.0,56.9,29.78,East,96,1.0,7.0,96,0.01,,,1.05,WUHU216DAVISVP2,2013-06-08 19:52:00,
2013-06-08 14:57:00,58.1,56.9,29.77,ESE,114,1.0,8.0,96,0.02,,,1.06,WUHU216DAVISVP2,2013-06-08 19:57:00,
2013-06-08 15:03:00,58.2,57.0,29.78,SE,145,2.0,8.0,96,0.02,,,1.06,WUHU216DAVISVP2,2013-06-08 20:03:00,
2013-06-08 15:08:00,58.2,57.0,29.78,ESE,123,1.0,8.0,96,0.03,,,1.07,WUHU216DAVISVP2,2013-06-08 20:08:00,
2013-06-08 15:13:00,58.2,57.0,29.77,East,97,2.0,7.0,96,0.03,,,1.08,WUHU216DAVISVP2,2013-06-08 20:13:00,
2013-06-08 15:18:00,58.3,57.1,29.77,East,100,2.0,6.0,96,0.04,,,1.09,WUHU216DAVISVP2,2013-06-08 20:18:00,
2013-06-08 15:23:00,58.4,57.2,29.77,ESE,105,3.0,9.0,96,0.05,,,1.10,WUHU216DAVISVP2,2013-06-08 20:23:00,
2013-06-08 15:28:00,58.4,57.2,29.77,East,99,1.0,9.0,96,0.06,,,1.11,WUHU216DAVISVP2,2013-06-08 20:28:00,
2013-06-08 15:33:00,58.5,57.3,29.77,SE,130,2.0,9.0,96,0.06,,,1.11,WUHU216DAVISVP2,2013-06-08 20:33:00,
2013-06-08 15:38:00,58.5,57.3,29.77,East,101,4.0,9.0,96,0.06,,,1.12,WUHU216DAVISVP2,2013-06-08 20:38:00,
2013-06-08 15:43:00,58.6,57.4,29.77,ESE,117,2.0,5.0,96,0.07,,,1.12,WUHU216DAVISVP2,2013-06-08 20:43:00,
2013-06-08 15:48:00,58.6,57.4,29.77,ESE,121,2.0,5.0,96,0.08,,,1.13,WUHU216DAVISVP2,2013-06-08 20:48:00,
2013-06-08 15:53:00,58.6,57.5,29.77,ESE,120,1.0,6.0,96,0.08,,,1.13,WUHU216DAVISVP2,2013-06-08 20:53:00,
2013-06-08 15:58:00,58.7,57.6,29.77,ESE,104,1.0,6.0,96,0.08,,,1.14,WUHU216DAVISVP2,2013-06-08 20:58:00,
2013-06-08 16:03:00,58.8,57.7,29.77,ESE,103,1.0,6.0,96,0.09,,,1.15,WUHU216DAVISVP2,2013-06-08 21:03:00,
2013-06-08 16:08:00,58.8,57.6,29.77,East,98,4.0,6.0,96,0.08,,,1.15,WUHU216DAVISVP2,2013-06-08 21:08:00,
2013-06-08 16:13:00,58.8,57.6,29.77,ESE,108,1.0,6.0,96,0.08,,,1.16,WUHU216DAVISVP2,2013-06-08 21:13:00,
2013-06-08 16:18:00,58.8,57.6,29.77,East,97,2.0,6.0,96,0.07,,,1.16,WUHU216DAVISVP2,2013-06-08 21:18:00,
2013-06-08 16:23:00,58.9,57.7,29.77,ENE,74,1.0,6.0,96,0.06,,,1.16,WUHU216DAVISVP2,2013-06-08 21:23:00,
2013-06-08 16:28:00,59.0,57.8,29.77,East,96,2.0,6.0,96,0.05,,,1.16,WUHU216DAVISVP2,2013-06-08 21:28:00,
2013-06-08 16:33:00,59.0,57.8,29.77,ESE,117,2.0,6.0,96,0.06,,,1.17,WUHU216DAVISVP2,2013-06-08 21:33:00,
2013-06-08 16:37:00,59.0,57.8,29.77,ESE,112,2.0,5.0,96,0.06,,,1.17,WUHU216DAVISVP2,2013-06-08 21:37:00,
2013-06-08 16:42:00,59.0,57.8,29.77,ESE,112,1.0,5.0,96,0.06,,,1.18,WUHU216DAVISVP2,2013-06-08 21:42:00,
2013-06-08 16:47:00,59.1,57.9,29.77,ESE,118,1.0,5.0,96,0.06,,,1.19,WUHU216DAVISVP2,2013-06-08 21:47:00,
2013-06-08 16:52:00,59.1,57.9,29.76,SE,124,1.0,5.0,96,0.07,,,1.20,WUHU216DAVISVP2,2013-06-08 21:52:00,
2013-06-08 16:57:00,59.1,57.9,29.76,ESE,111,1.0,4.0,96,0.06,,,1.20,WUHU216DAVISVP2,2013-06-08 21:57:00,
2013-06-08 17:02:00,59.1,57.9,29.76,SE,124,1.0,5.0,96,0.05,,,1.20,WUHU216DAVISVP2,2013-06-08 22:02:00,
2013-06-08 17:07:00,59.1,57.9,29.76,ESE,117,2.0,7.0,96,0.06,,,1.21,WUHU216DAVISVP2,2013-06-08 22:07:00,
2013-06-08 17:13:00,59.2,58.0,29.76,ESE,108,1.0,7.0,96,0.05,,,1.21,WUHU216DAVISVP2,2013-06-08 22:13:00,
2013-06-08 17:18:00,59.2,58.0,29.76,ENE,70,0.0,7.0,96,0.05,,,1.21,WUHU216DAVISVP2,2013-06-08 22:18:00,
2013-06-08 17:22:00,59.2,58.0,29.76,ESE,102,2.0,7.0,96,0.06,,,1.22,WUHU216DAVISVP2,2013-06-08 22:22:00,
2013-06-08 17:27:00,59.2,58.0,29.75,ESE,119,1.0,6.0,96,0.06,,,1.22,WUHU216DAVISVP2,2013-06-08 22:27:00,
2013-06-08 17:32:00,59.3,58.4,29.75,SE,134,2.0,5.0,97,0.05,,,1.22,WUHU216DAVISVP2,2013-06-08 22:32:00,
2013-06-08 17:37:00,59.3,58.4,29.75,East,86,4.0,5.0,97,0.06,,,1.23,WUHU216DAVISVP2,2013-06-08 22:37:00,
2013-06-08 17:42:00,59.4,58.5,29.75,SE,140,3.0,5.0,97,0.05,,,1.23,WUHU216DAVISVP2,2013-06-08 22:42:00,
2013-06-08 17:47:00,59.5,58.6,29.75,ESE,113,2.0,7.0,97,0.05,,,1.24,WUHU216DAVISVP2,2013-06-08 22:47:00,
2013-06-08 17:53:00,59.5,58.6,29.75,East,89,4.0,7.0,97,0.04,,,1.24,WUHU216DAVISVP2,2013-06-08 22:53:00,
2013-06-08 17:58:00,59.5,58.6,29.75,ESE,108,4.0,7.0,97,0.04,,,1.24,WUHU216DAVISVP2,2013-06-08 22:58:00,
2013-06-08 18:03:00,59.6,58.4,29.75,ESE,120,3.0,8.0,96,0.04,,,1.24,WUHU216DAVISVP2,2013-06-08 23:03:00,
2013-06-08 18:08:00,59.6,58.4,29.75,ESE,102,3.0,8.0,96,0.04,,,1.25,WUHU216DAVISVP2,2013-06-08 23:08:00,
2013-06-08 18:13:00,59.6,58.4,29.75,ENE,64,0.0,8.0,96,0.07,,,1.28,WUHU216DAVISVP2,2013-06-08 23:13:00,
2013-06-08 18:18:00,59.6,58.4,29.74,East,97,3.0,8.0,96,0.10,,,1.31,WUHU216DAVISVP2,2013-06-08 23:18:00,
2013-06-08 18:23:00,59.6,58.7,29.74,ESE,112,0.0,6.0,97,0.12,,,1.34,WUHU216DAVISVP2,2013-06-08 23:23:00,
2013-06-08 18:28:00,59.5,58.6,29.74,ESE,104,3.0,10.0,97,0.15,,,1.37,WUHU216DAVISVP2,2013-06-08 23:28:00,
2013-06-08 18:33:00,59.5,58.6,29.74,ESE,104,3.0,10.0,97,0.18,,,1.40,WUHU216DAVISVP2,2013-06-08 23:33:00,
2013-06-08 18:38:00,59.4,58.5,29.74,East,89,2.0,10.0,97,0.22,,,1.45,WUHU216DAVISVP2,2013-06-08 23:38:00,
2013-06-08 18:43:00,59.3,58.4,29.74,East,89,5.0,12.0,97,0.25,,,1.48,WUHU216DAVISVP2,2013-06-08 23:43:00,
2013-06-08 18:48:00,59.3,58.4,29.74,East,86,0.0,12.0,97,0.26,,,1.50,WUHU216DAVISVP2,2013-06-08 23:48:00,
2013-06-08 18:53:00,59.3,58.4,29.74,ENE,65,2.0,12.0,97,0.28,,,1.52,WUHU216DAVISVP2,2013-06-08 23:53:00,
2013-06-08 18:58:00,59.3,58.4,29.74,East,88,2.0,12.0,97,0.31,,,1.55,WUHU216DAVISVP2,2013-06-08 23:58:00,
2013-06-08 19:03:00,59.2,58.3,29.74,SE,130,2.0,11.0,97,0.32,,,1.56,WUHU216DAVISVP2,2013-06-09 00:03:00,
2013-06-08 19:08:00,59.2,58.3,29.74,East,98,3.0,11.0,97,0.32,,,1.58,WUHU216DAVISVP2,2013-06-09 00:08:00,
2013-06-08 19:13:00,59.0,57.8,29.74,ESE,118,3.0,10.0,96,0.31,,,1.59,WUHU216DAVISVP2,2013-06-09 00:13:00,
2013-06-08 19:18:00,58.9,57.7,29.74,SE,125,3.0,12.0,96,0.28,,,1.60,WUHU216DAVISVP2,2013-06-09 00:18:00,
2013-06-08 19:23:00,58.7,57.5,29.74,ESE,103,4.0,12.0,96,0.28,,,1.62,WUHU216DAVISVP2,2013-06-09 00:23:00,
2013-06-08 19:28:00,58.7,57.5,29.74,East,97,2.0,12.0,96,0.26,,,1.63,WUHU216DAVISVP2,2013-06-09 00:28:00,
2013-06-08 19:33:00,58.5,57.3,29.74,East,95,8.0,17.0,96,0.25,,,1.65,WUHU216DAVISVP2,2013-06-09 00:33:00,
2013-06-08 19:38:00,58.3,57.1,29.74,ESE,103,10.0,17.0,96,0.21,,,1.66,WUHU216DAVISVP2,2013-06-09 00:38:00,
2013-06-08 19:43:00,58.0,56.9,29.74,ESE,102,5.0,17.0,96,0.18,,,1.66,WUHU216DAVISVP2,2013-06-09 00:43:00,
2013-06-08 19:48:00,57.9,56.8,29.74,NE,53,4.0,17.0,96,0.17,,,1.67,WUHU216DAVISVP2,2013-06-09 00:48:00,
2013-06-08 19:53:00,57.8,56.7,29.74,East,93,2.0,13.0,96,0.16,,,1.68,WUHU216DAVISVP2,2013-06-09 00:53:00,
2013-06-08 19:58:00,57.8,56.6,29.74,East,100,2.0,13.0,96,0.13,,,1.68,WUHU216DAVISVP2,2013-06-09 00:58:00,
2013-06-08 20:03:00,57.7,56.6,29.74,East,96,1.0,13.0,96,0.12,,,1.68,WUHU216DAVISVP2,2013-06-09 01:03:00,
2013-06-08 20:08:00,57.7,56.6,29.74,East,98,4.0,13.0,96,0.11,,,1.69,WUHU216DAVISVP2,2013-06-09 01:08:00,
2013-06-08 20:13:00,57.7,56.6,29.74,ESE,106,3.0,9.0,96,0.10,,,1.69,WUHU216DAVISVP2,2013-06-09 01:13:00,
2013-06-08 20:18:00,57.7,56.6,29.74,SSE,149,1.0,7.0,96,0.09,,,1.69,WUHU216DAVISVP2,2013-06-09 01:18:00,
2013-06-08 20:23:00,57.8,57.0,29.74,ESE,114,2.0,9.0,97,0.08,,,1.70,WUHU216DAVISVP2,2013-06-09 01:23:00,
2013-06-08 20:28:00,57.9,57.1,29.75,ESE,117,1.0,9.0,97,0.09,,,1.72,WUHU216DAVISVP2,2013-06-09 01:28:00,
2013-06-08 20:33:00,57.9,57.1,29.75,East,85,3.0,10.0,97,0.10,,,1.75,WUHU216DAVISVP2,2013-06-09 01:33:00,
2013-06-08 20:38:00,58.0,57.2,29.75,East,98,2.0,10.0,97,0.14,,,1.80,WUHU216DAVISVP2,2013-06-09 01:38:00,
2013-06-08 20:43:00,58.1,57.3,29.74,ESE,109,1.0,10.0,97,0.18,,,1.84,WUHU216DAVISVP2,2013-06-09 01:43:00,
2013-06-08 20:47:00,58.1,57.3,29.74,East,94,1.0,10.0,97,0.21,,,1.88,WUHU216DAVISVP2,2013-06-09 01:47:00,
2013-06-08 20:52:00,58.1,57.3,29.74,East,101,1.0,8.0,97,0.23,,,1.91,WUHU216DAVISVP2,2013-06-09 01:52:00,
2013-06-08 20:57:00,58.2,57.4,29.73,ENE,65,4.0,7.0,97,0.25,,,1.93,WUHU216DAVISVP2,2013-06-09 01:57:00,
2013-06-08 21:02:00,58.2,57.4,29.73,SE,140,3.0,9.0,97,0.28,,,1.96,WUHU216DAVISVP2,2013-06-09 02:02:00,
2013-06-08 21:07:00,58.2,57.4,29.73,East,95,3.0,9.0,97,0.30,,,1.99,WUHU216DAVISVP2,2013-06-09 02:07:00,
2013-06-08 21:12:00,58.2,57.4,29.73,East,87,2.0,9.0,97,0.31,,,2.00,WUHU216DAVISVP2,2013-06-09 02:12:00,
2013-06-08 21:17:00,58.2,57.4,29.73,SE,146,2.0,7.0,97,0.33,,,2.02,WUHU216DAVISVP2,2013-06-09 02:17:00,
2013-06-08 21:22:00,58.2,57.4,29.73,East,84,8.0,13.0,97,0.33,,,2.03,WUHU216DAVISVP2,2013-06-09 02:22:00,
2013-06-08 21:27:00,58.2,57.4,29.73,East,90,3.0,13.0,97,0.32,,,2.04,WUHU216DAVISVP2,2013-06-09 02:27:00,
2013-06-08 21:32:00,58.2,57.4,29.73,East,94,1.0,13.0,97,0.29,,,2.04,WUHU216DAVISVP2,2013-06-09 02:32:00,
2013-06-08 21:37:00,58.2,57.4,29.73,ESE,103,3.0,13.0,97,0.25,,,2.05,WUHU216DAVISVP2,2013-06-09 02:37:00,
2013-06-08 21:42:00,58.2,57.4,29.73,East,101,4.0,10.0,97,0.22,,,2.06,WUHU216DAVISVP2,2013-06-09 02:42:00,
2013-06-08 21:47:00,58.1,57.3,29.73,East,86,3.0,10.0,97,0.18,,,2.06,WUHU216DAVISVP2,2013-06-09 02:47:00,
2013-06-08 21:52:00,58.1,57.3,29.73,East,97,2.0,10.0,97,0.16,,,2.07,WUHU216DAVISVP2,2013-06-09 02:52:00,
2013-06-08 21:57:00,58.1,57.2,29.73,ESE,113,1.0,10.0,97,0.15,,,2.08,WUHU216DAVISVP2,2013-06-09 02:57:00,
2013-06-08 22:02:00,58.0,57.2,29.73,East,84,2.0,6.0,97,0.15,,,2.11,WUHU216DAVISVP2,2013-06-09 03:02:00,
2013-06-08 22:07:00,58.0,57.1,29.73,East,100,1.0,6.0,97,0.14,,,2.13,WUHU216DAVISVP2,2013-06-09 03:07:00,
2013-06-08 22:12:00,58.0,57.1,29.73,East,79,1.0,8.0,97,0.14,,,2.14,WUHU216DAVISVP2,2013-06-09 03:12:00,
2013-06-08 22:17:00,57.9,57.0,29.73,SE,124,0.0,8.0,97,0.13,,,2.15,WUHU216DAVISVP2,2013-06-09 03:17:00,
2013-06-08 22:22:00,57.9,57.0,29.73,ENE,77,2.0,8.0,97,0.13,,,2.16,WUHU216DAVISVP2,2013-06-09 03:22:00,
2013-06-08 22:27:00,57.8,56.9,29.73,East,92,1.0,8.0,97,0.12,,,2.16,WUHU216DAVISVP2,2013-06-09 03:27:00,
2013-06-08 22:32:00,57.8,56.9,29.73,East,96,3.0,8.0,97,0.13,,,2.17,WUHU216DAVISVP2,2013-06-09 03:32:00,
2013-06-08 22:37:00,57.8,56.6,29.72,East,87,3.0,8.0,96,0.13,,,2.18,WUHU216DAVISVP2,2013-06-09 03:37:00,
2013-06-08 22:42:00,57.7,56.5,29.72,East,80,2.0,6.0,96,0.12,,,2.18,WUHU216DAVISVP2,2013-06-09 03:42:00,
2013-06-08 22:47:00,57.7,56.5,29.72,East,89,3.0,7.0,96,0.12,,,2.18,WUHU216DAVISVP2,2013-06-09 03:47:00,
2013-06-08 22:52:00,57.7,56.5,29.72,East,87,2.0,7.0,96,0.11,,,2.18,WUHU216DAVISVP2,2013-06-09 03:52:00,
2013-06-08 22:57:00,57.7,56.5,29.71,ENE,67,1.0,7.0,96,0.10,,,2.18,WUHU216DAVISVP2,2013-06-09 03:57:00,
2013-06-08 23:01:00,57.7,56.5,29.71,East,85,4.0,7.0,96,0.10,,,2.19,WUHU216DAVISVP2,2013-06-09 04:01:00,
2013-06-08 23:06:00,57.9,56.7,29.71,ESE,117,4.0,7.0,96,0.06,,,2.19,WUHU216DAVISVP2,2013-06-09 04:06:00,
2013-06-08 23:11:00,57.9,56.7,29.70,East,84,2.0,9.0,96,0.05,,,2.19,WUHU216DAVISVP2,2013-06-09 04:11:00,
2013-06-08 23:16:00,58.0,56.9,29.70,East,100,3.0,10.0,96,0.04,,,2.19,WUHU216DAVISVP2,2013-06-09 04:16:00,
2013-06-08 23:21:00,58.0,56.8,29.69,East,86,3.0,11.0,96,0.03,,,2.19,WUHU216DAVISVP2,2013-06-09 04:21:00,
2013-06-08 23:26:00,58.1,56.9,29.69,ESE,118,3.0,12.0,96,0.04,,,2.20,WUHU216DAVISVP2,2013-06-09 04:26:00,
2013-06-08 23:31:00,58.2,57.0,29.69,SE,134,2.0,12.0,96,0.03,,,2.20,WUHU216DAVISVP2,2013-06-09 04:31:00,
2013-06-08 23:37:00,58.2,57.0,29.69,South,176,3.0,12.0,96,0.02,,,2.20,WUHU216DAVISVP2,2013-06-09 04:37:00,
2013-06-08 23:42:00,58.2,57.0,29.69,East,99,3.0,12.0,96,0.03,,,2.21,WUHU216DAVISVP2,2013-06-09 04:42:00,
2013-06-08 23:47:00,58.1,56.9,29.69,South,174,5.0,12.0,96,0.04,,,2.22,WUHU216DAVISVP2,2013-06-09 04:47:00,
2013-06-08 23:52:00,58.1,56.9,29.68,East,80,2.0,12.0,96,0.05,,,2.23,WUHU216DAVISVP2,2013-06-09 04:52:00,
2013-06-08 23:57:00,58.1,56.9,29.68,East,97,3.0,12.0,96,0.05,,,2.23,WUHU216DAVISVP2,2013-06-09 04:57:00,